EN

Hourly Weather Tomczyce

Today, 20 April, Tuesday

Time Temperature Precipitation Wind Pressure Humidity
00:00 +9°C° 0 mm 1 mps 752 mmHg 74%
01:00 +9°C° 0 mm 1 mps 752 mmHg 74%
02:00 +9°C° 0 mm 1 mps 752 mmHg 75%
03:00 +8°C° 0 mm 1 mps 752 mmHg 77%
04:00 +7°C° 0 mm 2 mps 752 mmHg 78%
05:00 +9°C° 0 mm 1 mps 752 mmHg 76%
06:00 +10°C° 0 mm 1 mps 752 mmHg 74%
07:00 +10°C° 0 mm 1 mps 752 mmHg 71%
08:00 +12°C° 0 mm 1 mps 752 mmHg 65%
09:00 +13°C° 0 mm 1 mps 751 mmHg 60%
10:00 +15°C° 0 mm 1 mps 751 mmHg 54%
11:00 +15°C° 0.1 mm 1 mps 751 mmHg 51%
12:00 +16°C° 0.1 mm 1 mps 750 mmHg 48%
13:00 +15°C° 0.1 mm 0 mps 750 mmHg 46%
14:00 +16°C° 0 mm 1 mps 750 mmHg 46%
15:00 +16°C° 0 mm 1 mps 750 mmHg 47%
16:00 +16°C° 0 mm 2 mps 749 mmHg 47%
17:00 +14°C° 0 mm 2 mps 749 mmHg 54%
18:00 +13°C° 0 mm 1 mps 749 mmHg 61%
19:00 +11°C° 0 mm 1 mps 749 mmHg 68%
20:00 +11°C° 0.1 mm 1 mps 749 mmHg 72%
21:00 +10°C° 0.1 mm 1 mps 749 mmHg 76%
22:00 +10°C° 0.1 mm 1 mps 749 mmHg 79%
23:00 +8°C° 0.1 mm 2 mps 749 mmHg 81%

Tomorrow, 21 April, Wednesday

Time Temperature Precipitation Wind Pressure Humidity
00:00 +8°C° 0.1 mm 2 mps 749 mmHg 83%
01:00 +8°C° 0.1 mm 2 mps 749 mmHg 85%
02:00 +8°C° 0 mm 2 mps 748 mmHg 87%
03:00 +8°C° 0 mm 2 mps 748 mmHg 88%
04:00 +7°C° 0 mm 2 mps 748 mmHg 90%
05:00 +8°C° 0.1 mm 2 mps 748 mmHg 88%
06:00 +9°C° 0.1 mm 2 mps 748 mmHg 86%
07:00 +9°C° 0.1 mm 2 mps 748 mmHg 84%
08:00 +12°C° 0.2 mm 2 mps 748 mmHg 75%
09:00 +12°C° 0.2 mm 3 mps 748 mmHg 67%
10:00 +14°C° 0.2 mm 3 mps 748 mmHg 58%
11:00 +14°C° 0.3 mm 4 mps 748 mmHg 55%
12:00 +15°C° 0.3 mm 4 mps 748 mmHg 52%
13:00 +15°C° 0.3 mm 5 mps 747 mmHg 49%
14:00 +15°C° 0.1 mm 4 mps 747 mmHg 51%
15:00 +14°C° 0.1 mm 4 mps 747 mmHg 53%
16:00 +14°C° 0.1 mm 4 mps 747 mmHg 55%
17:00 +13°C° 0 mm 4 mps 747 mmHg 59%
18:00 +11°C° 0 mm 3 mps 747 mmHg 63%
19:00 +10°C° 0 mm 3 mps 747 mmHg 67%
20:00 +9°C° 0 mm 3 mps 747 mmHg 67%
21:00 +9°C° 0 mm 3 mps 747 mmHg 67%
22:00 +9°C° 0 mm 3 mps 747 mmHg 67%
23:00 +8°C° 0 mm 3 mps 748 mmHg 75%

Day after tomorrow, 22 April, Thursday

Time Temperature Precipitation Wind Pressure Humidity
00:00 +7°C° 0 mm 3 mps 748 mmHg 83%
01:00 +5°C° 0 mm 3 mps 748 mmHg 91%
02:00 +5°C° 0.1 mm 3 mps 748 mmHg 89%
03:00 +5°C° 0.1 mm 4 mps 749 mmHg 86%
04:00 +4°C° 0.1 mm 4 mps 749 mmHg 83%
05:00 +3°C° 0 mm 5 mps 749 mmHg 77%
06:00 +3°C° 0 mm 5 mps 749 mmHg 72%
07:00 +2°C° 0 mm 6 mps 750 mmHg 66%
08:00 +3°C° 0 mm 6 mps 750 mmHg 61%
09:00 +4°C° 0 mm 7 mps 750 mmHg 57%
10:00 +5°C° 0 mm 7 mps 750 mmHg 52%
11:00 +5°C° 0 mm 7 mps 750 mmHg 52%
12:00 +5°C° 0 mm 7 mps 750 mmHg 53%
13:00 +6°C° 0 mm 7 mps 750 mmHg 53%
14:00 +5°C° 0.1 mm 7 mps 750 mmHg 56%
15:00 +5°C° 0.1 mm 7 mps 750 mmHg 59%
16:00 +5°C° 0.1 mm 6 mps 751 mmHg 62%
17:00 +4°C° 0.1 mm 6 mps 751 mmHg 65%
18:00 +3°C° 0.1 mm 5 mps 751 mmHg 68%
19:00 +3°C° 0.1 mm 4 mps 751 mmHg 71%
20:00 +3°C° 0 mm 4 mps 751 mmHg 74%
21:00 +1°C° 0 mm 4 mps 751 mmHg 76%
22:00 +1°C° 0 mm 4 mps 751 mmHg 79%
23:00 0°C° 0 mm 4 mps 751 mmHg 79%

23 April, Friday

Time Temperature Precipitation Wind Pressure Humidity
00:00 0°C° 0 mm 5 mps 751 mmHg 78%
01:00 0°C° 0 mm 5 mps 752 mmHg 78%
02:00 0°C° 0 mm 5 mps 752 mmHg 78%
03:00 0°C° 0 mm 5 mps 752 mmHg 78%
04:00 0°C° 0 mm 5 mps 752 mmHg 78%
05:00 -1°C° 0 mm 6 mps 752 mmHg 75%
06:00 +1°C° 0 mm 6 mps 752 mmHg 71%
07:00 +2°C° 0 mm 6 mps 753 mmHg 68%
08:00 +3°C° 0.1 mm 7 mps 753 mmHg 63%
09:00 +4°C° 0.1 mm 8 mps 753 mmHg 58%
10:00 +5°C° 0.1 mm 8 mps 753 mmHg 53%
11:00 +5°C° 0.3 mm 8 mps 753 mmHg 58%
12:00 +4°C° 0.3 mm 7 mps 753 mmHg 63%
13:00 +4°C° 0.3 mm 7 mps 753 mmHg 69%
14:00 +5°C° 0.3 mm 7 mps 753 mmHg 62%
15:00 +5°C° 0.3 mm 7 mps 754 mmHg 56%
16:00 +7°C° 0.3 mm 6 mps 754 mmHg 50%
17:00 +5°C° 0 mm 5 mps 754 mmHg 52%
18:00 +4°C° 0 mm 4 mps 754 mmHg 55%
19:00 +2°C° 0 mm 3 mps 755 mmHg 57%
20:00 +1°C° 0 mm 3 mps 755 mmHg 60%
21:00 0°C° 0 mm 4 mps 755 mmHg 64%
22:00 -1°C° 0 mm 4 mps 755 mmHg 67%
23:00 -1°C° 0 mm 4 mps 755 mmHg 68%

24 April, Saturday

Time Temperature Precipitation Wind Pressure Humidity
00:00 -2°C° 0 mm 4 mps 755 mmHg 69%
01:00 -2°C° 0 mm 4 mps 755 mmHg 69%
02:00 -2°C° 0 mm 4 mps 755 mmHg 69%
03:00 -2°C° 0 mm 5 mps 755 mmHg 69%
04:00 -2°C° 0 mm 5 mps 755 mmHg 68%
05:00 -1°C° 0 mm 5 mps 756 mmHg 66%
06:00 0°C° 0 mm 5 mps 756 mmHg 63%
07:00 +1°C° 0 mm 5 mps 756 mmHg 60%
08:00 +3°C° 0 mm 5 mps 756 mmHg 53%
09:00 +5°C° 0 mm 6 mps 756 mmHg 47%
10:00 +7°C° 0 mm 6 mps 756 mmHg 40%
11:00 +8°C° 0 mm 6 mps 755 mmHg 40%
12:00 +8°C° 0 mm 6 mps 755 mmHg 39%
13:00 +9°C° 0 mm 6 mps 755 mmHg 39%
14:00 +8°C° 0.1 mm 6 mps 754 mmHg 46%
15:00 +8°C° 0.1 mm 6 mps 754 mmHg 53%
16:00 +7°C° 0.1 mm 6 mps 754 mmHg 60%
17:00 +5°C° 0.7 mm 5 mps 754 mmHg 72%
18:00 +3°C° 0.7 mm 5 mps 754 mmHg 83%
19:00 +1°C° 0.7 mm 4 mps 754 mmHg 95%
20:00 +2°C° 0.3 mm 3 mps 755 mmHg 95%
21:00 +1°C° 0.3 mm 3 mps 755 mmHg 95%
22:00 +2°C° 0.3 mm 2 mps 755 mmHg 94%
23:00 +1°C° 0 mm 2 mps 755 mmHg 94%

25 April, Sunday

Time Temperature Precipitation Wind Pressure Humidity
00:00 +1°C° 0 mm 2 mps 755 mmHg 94%
01:00 -1°C° 0 mm 2 mps 755 mmHg 93%
02:00 -2°C° 0 mm 2 mps 755 mmHg 92%
03:00 -2°C° 0 mm 3 mps 755 mmHg 90%
04:00 -2°C° 0 mm 3 mps 755 mmHg 89%
05:00 -1°C° 0 mm 3 mps 755 mmHg 84%
06:00 0°C° 0 mm 3 mps 755 mmHg 79%
07:00 0°C° 0 mm 4 mps 756 mmHg 74%
08:00 +3°C° 0 mm 4 mps 756 mmHg 67%
09:00 +3°C° 0 mm 5 mps 756 mmHg 60%
10:00 +5°C° 0 mm 5 mps 756 mmHg 53%
11:00 +6°C° 0.2 mm 5 mps 755 mmHg 52%
12:00 +6°C° 0.2 mm 5 mps 755 mmHg 51%
13:00 +7°C° 0.2 mm 5 mps 755 mmHg 50%
14:00 +6°C° 0.3 mm 5 mps 754 mmHg 54%
15:00 +5°C° 0.3 mm 6 mps 754 mmHg 57%
16:00 +5°C° 0.3 mm 6 mps 754 mmHg 61%
17:00 +3°C° 0.3 mm 6 mps 754 mmHg 68%
18:00 +2°C° 0.3 mm 5 mps 754 mmHg 75%
19:00 +1°C° 0.3 mm 4 mps 754 mmHg 82%
20:00 +1°C° 0.2 mm 3 mps 754 mmHg 82%
21:00 +2°C° 0.2 mm 2 mps 754 mmHg 82%
22:00 +3°C° 0.2 mm 1 mps 755 mmHg 83%
23:00 +1°C° 0 mm 2 mps 754 mmHg 84%
Show more

We Need Your Consent

Meteoprog and our Service Providers may store and access personal data such as cookies, device identifiers or other similar technologies on your device and process such data to personalise content and ads, as well as provide social media features and to analyse the traffic.

  • Store and/or access information on your device

    Cookies, device identifiers or other information can be stored or accessed on your device for the purposes indicated above.

  • Personalised ads and content, ad and content measurement, audience insights, and products development

    Ads and content can be personalised based on a profile. More data can be added to better personalise ads and content. Ad and content performance can be measured. Insights about the audience who saw the ads and content can be derived. Such data can be used to develop or improve user’s experience, systems and software.

By clicking ‘I Agree’ you will allow the use of indicated cookies, device identifiers, web beacons or other similar technologies. Your settings can be changed in the browser on your device.

For certain purposes, legitimate interests may be relied on, rather than consent. You can read more about this in our Privacy and Cookie Policy.